Date String (YYYY-MM-DD hh:mm:ss) UTC,Instrument flags,absolute air pressure of the measurement (hPa),sample flow rate (lpm),inlet stack bypass flow (lpm),air temperature of the measurement (°C),ambient temperature measured by the external sensor (°C),aerosol sample conditioner tube jacket temperature (°C),OPC LED temperature (°C),internal box temperature (°C),relative humidity of the measurement (%),span deviation,mass concentration of particles derived from Lorenz-Mie calculation of OPC scattering (μg/m³),mass concentration of particles derived from Lorenz-Mie calculation of OPC scattering (μg/m³),mass concentration of particles derived from Lorenz-Mie calculation of OPC scattering (μg/m³)
DateTimeUTC,F1_M11,P_M11,Q1_M11,Q2_M11,T1_M11,T2_M11,T3_M11,T4_M11,T5_M11,U1_M11,ZSPAN_M11,X2_M11,X0_M11,X1_M11
2023-10-02 17:00:00,SystemResetWarning,0829.0,4.99,000.00,028.7,026.3,000.0,037.3,030.3,23.4,0000.0,0004.88,0009.95,0003.84
2023-10-02 17:01:00,SystemResetWarning,0829.0,5.00,000.00,028.7,026.6,000.0,037.3,030.3,23.5,0000.0,0004.88,0009.96,0003.83
2023-10-02 17:02:00,SystemResetWarning,0829.1,5.00,000.00,028.7,026.8,000.0,037.2,030.3,23.6,0000.0,0004.87,0009.91,0003.83
2023-10-02 17:03:00,SystemResetWarning,0829.1,5.01,000.00,028.7,027.0,000.0,037.2,030.4,23.5,0000.0,0004.86,0009.96,0003.83
2023-10-02 17:04:00,SystemResetWarning,0829.1,5.00,000.00,028.7,027.1,000.0,037.2,030.4,23.6,0000.0,0004.83,0009.94,0003.83
2023-10-02 17:05:00,SystemResetWarning,0829.1,5.00,000.00,028.7,027.3,000.0,037.2,030.5,23.7,0000.0,0004.82,0010.54,0003.82
2023-10-02 17:06:00,SystemResetWarning,0829.1,5.00,000.00,028.8,027.4,000.0,037.3,030.5,23.5,0000.0,0004.77,0011.17,0003.80
2023-10-02 17:07:00,SystemResetWarning,0829.0,5.00,000.00,028.8,027.5,000.0,037.3,030.5,23.5,0000.0,0004.73,0011.08,0003.79
2023-10-02 17:08:00,SystemResetWarning,0829.0,5.00,000.00,028.8,027.6,000.0,037.3,030.6,23.5,0000.0,0004.76,0011.19,0003.79
2023-10-02 17:09:00,SystemResetWarning,0828.9,5.00,000.00,028.9,027.7,000.0,037.3,030.6,23.4,0000.0,0004.72,0011.04,0003.77
2023-10-02 17:10:00,SystemResetWarning,0828.9,5.00,000.00,028.9,027.7,000.0,037.3,030.7,23.3,0000.0,0004.73,0011.36,0003.77
2023-10-02 17:11:00,SystemResetWarning,0829.0,5.00,000.00,028.9,027.8,000.0,037.3,030.7,23.3,0000.0,0004.74,0011.34,0003.79
2023-10-02 17:12:00,SystemResetWarning,0828.9,5.00,000.00,028.9,027.8,000.0,037.3,030.7,23.5,0000.0,0004.78,0011.82,0003.80
2023-10-02 17:13:00,SystemResetWarning,0828.9,5.00,000.00,029.0,027.9,000.0,037.3,030.7,23.5,0000.0,0004.82,0011.93,0003.80
2023-10-02 17:14:00,SystemResetWarning,0828.8,4.99,000.00,029.0,027.2,000.0,037.3,030.8,23.3,0000.0,0004.80,0012.23,0003.80
2023-10-02 17:15:00,SystemResetWarning,0828.7,4.99,000.00,028.9,025.3,000.0,037.3,030.5,23.4,0000.0,0004.78,0012.80,0003.80
2023-10-02 17:16:00,SystemResetWarning,0828.8,5.01,000.00,028.8,024.5,000.0,037.2,030.4,23.3,0000.0,0004.76,0012.42,0003.81
2023-10-02 17:17:00,SystemResetWarning,0828.8,5.02,000.00,028.8,024.7,000.0,037.2,030.2,23.3,0000.0,0004.79,0011.36,0003.83
2023-10-02 17:18:00,SystemResetWarning,0828.7,5.00,000.00,028.7,025.1,000.0,037.2,030.1,23.4,0000.0,0004.86,0011.66,0003.85
2023-10-02 17:19:00,SystemResetWarning,0828.8,5.00,000.00,028.6,025.5,000.0,037.2,030.1,23.5,0000.0,0004.85,0011.77,0003.86
2023-10-02 17:20:00,SystemResetWarning,0828.8,5.00,000.00,028.6,025.8,000.0,037.2,030.1,23.7,0000.0,0004.87,0011.80,0003.87
2023-10-02 17:21:00,SystemResetWarning,0828.7,5.00,000.00,028.6,026.2,000.0,037.2,030.2,23.7,0000.0,0004.86,0012.04,0003.89
2023-10-02 17:22:00,SystemResetWarning,0828.7,4.99,000.00,028.6,026.5,000.0,037.2,030.2,23.6,0000.0,0004.90,0012.00,0003.90
2023-10-02 17:23:00,SystemResetWarning,0828.7,5.00,000.00,028.6,026.7,000.0,037.2,030.3,23.5,0000.0,0004.94,0011.53,0003.92
2023-10-02 17:24:00,SystemResetWarning,0828.7,5.00,000.00,028.6,026.9,000.0,037.2,030.3,23.6,0000.0,0004.92,0011.89,0003.92
2023-10-02 17:25:00,SystemResetWarning,0828.7,5.01,000.00,028.6,027.1,000.0,037.2,030.4,23.7,0000.0,0004.89,0013.46,0003.93
2023-10-02 17:26:00,SystemResetWarning,0828.7,5.00,000.00,028.7,027.2,000.0,037.2,030.4,23.5,0000.0,0004.95,0012.95,0003.93
2023-10-02 17:27:00,SystemResetWarning,0828.7,5.00,000.00,028.7,027.4,000.0,037.2,030.5,23.5,0000.0,0005.01,0013.37,0003.95
2023-10-02 17:28:00,SystemResetWarning,0828.7,5.00,000.00,028.7,027.5,000.0,037.2,030.5,23.6,0000.0,0005.01,0013.95,0003.95
2023-10-02 17:29:00,SystemResetWarning,0828.6,5.00,000.00,028.8,027.6,000.0,037.2,030.5,23.9,0000.0,0004.98,0013.71,0003.96
2023-10-02 17:30:00,SystemResetWarning,0828.6,5.01,000.00,028.8,027.6,000.0,037.2,030.6,24.0,0000.0,0005.01,0013.96,0003.97
2023-10-02 17:31:00,SystemResetWarning,0828.6,5.01,000.00,028.8,027.7,000.0,037.2,030.6,23.9,0000.0,0005.02,0014.60,0003.98
2023-10-02 17:32:00,SystemResetWarning,0828.6,5.00,000.00,028.9,027.8,000.0,037.2,030.7,23.4,0000.0,0005.07,0015.44,0003.98
2023-10-02 17:33:00,SystemResetWarning,0828.6,5.01,000.00,028.9,027.9,000.0,037.3,030.7,23.2,0000.0,0005.08,0016.09,0003.97
2023-10-02 17:34:00,SystemResetWarning,0828.6,4.99,000.00,028.9,027.9,000.0,037.3,030.7,23.2,0000.0,0005.04,0016.30,0003.98
2023-10-02 17:35:00,SystemResetWarning,0828.6,4.99,000.00,029.0,028.0,000.0,037.3,030.8,23.2,0000.0,0005.04,0016.10,0003.99
2023-10-02 17:36:00,SystemResetWarning,0828.5,4.99,000.00,029.0,027.0,000.0,037.3,030.8,23.3,0000.0,0005.03,0014.85,0004.00
2023-10-02 17:37:00,SystemResetWarning,0828.4,5.01,000.00,028.9,025.2,000.0,037.2,030.5,23.2,0000.0,0005.05,0014.10,0004.00
2023-10-02 17:38:00,SystemResetWarning,0828.4,5.00,000.00,028.8,024.6,000.0,037.2,030.4,23.4,0000.0,0005.03,0015.04,0004.01
2023-10-02 17:39:00,SystemResetWarning,0828.4,5.01,000.00,028.7,024.8,000.0,037.2,030.2,23.7,0000.0,0005.04,0016.00,0004.02
2023-10-02 17:40:00,SystemResetWarning,0828.4,5.01,000.00,028.6,025.2,000.0,037.2,030.1,23.7,0000.0,0005.04,0016.54,0004.03
2023-10-02 17:41:00,SystemResetWarning,0828.3,4.99,000.00,028.6,025.6,000.0,037.2,030.2,23.7,0000.0,0005.03,0016.31,0004.03
2023-10-02 17:42:00,SystemResetWarning,0828.4,5.00,000.00,028.6,026.0,000.0,037.2,030.2,23.7,0000.0,0005.01,0016.12,0004.04
2023-10-02 17:43:00,SystemResetWarning,0828.3,5.01,000.00,028.6,026.3,000.0,037.2,030.2,23.8,0000.0,0005.02,0015.39,0004.04
2023-10-02 17:44:00,SystemResetWarning,0828.3,5.00,000.00,028.6,026.6,000.0,037.2,030.3,23.8,0000.0,0005.04,0014.82,0004.04
2023-10-02 17:45:00,SystemResetWarning,0828.3,5.00,000.00,028.6,026.8,000.0,037.2,030.3,23.9,0000.0,0005.00,0014.81,0004.04
2023-10-02 17:46:00,SystemResetWarning,0828.3,5.00,000.00,028.6,027.0,000.0,037.2,030.4,23.4,0000.0,0005.00,0015.40,0004.03
2023-10-02 17:47:00,SystemResetWarning,0828.3,5.00,000.00,028.7,027.2,000.0,037.2,030.4,23.1,0000.0,0005.03,0015.32,0004.02
2023-10-02 17:48:00,SystemResetWarning,0828.3,5.00,000.00,028.7,027.4,000.0,037.2,030.5,23.1,0000.0,0005.02,0015.10,0004.01
2023-10-02 17:49:00,SystemResetWarning,0828.3,5.00,000.00,028.7,027.5,000.0,037.2,030.5,23.0,0000.0,0005.08,0014.53,0004.02
2023-10-02 17:50:00,SystemResetWarning,0828.3,5.00,000.00,028.8,027.6,000.0,037.2,030.6,23.1,0000.0,0005.07,0012.77,0004.00
2023-10-02 17:51:00,SystemResetWarning,0828.3,5.00,000.00,028.8,027.7,000.0,037.2,030.6,23.5,0000.0,0005.11,0012.00,0003.98
2023-10-02 17:52:00,SystemResetWarning,0828.3,5.00,000.00,028.8,027.8,000.0,037.2,030.7,23.4,0000.0,0005.13,0012.82,0003.96
2023-10-02 17:53:00,SystemResetWarning,0828.2,4.99,000.00,028.9,027.9,000.0,037.3,030.7,23.3,0000.0,0005.14,0013.04,0003.94
2023-10-02 17:54:00,SystemResetWarning,0828.3,4.98,000.00,028.9,027.2,000.0,037.3,030.7,23.2,0000.0,0005.06,0013.63,0003.92
2023-10-02 17:55:00,SystemResetWarning,0828.3,5.00,000.00,028.9,025.4,000.0,037.2,030.5,23.4,0000.0,0005.00,0013.19,0003.90
2023-10-02 17:56:00,SystemResetWarning,0828.3,5.00,000.00,028.8,024.7,000.0,037.1,030.3,23.4,0000.0,0005.00,0013.35,0003.89
2023-10-02 17:57:00,SystemResetWarning,0828.3,5.01,000.00,028.7,024.9,000.0,037.1,030.2,23.5,0000.0,0004.98,0012.80,0003.87
2023-10-02 17:58:00,SystemResetWarning,0828.3,5.01,000.00,028.6,025.2,000.0,037.1,030.1,23.4,0000.0,0004.91,0013.04,0003.85
2023-10-02 17:59:00,SystemResetWarning,0828.2,4.99,000.00,028.6,025.6,000.0,037.1,030.1,23.1,0000.0,0004.88,0013.25,0003.84
